Weather History for Willimantic, CT

Change the Weather History Date:

Tuesday, January 15, 2013

  Actual Average Record
Temperature  
Mean Temperature 38 °F -  
Max Temperature 42 °F 33 °F 58 °F (1992)
Min Temperature 33 °F 13 °F -17 °F (1957)
Degree Days  
Heating Degree Days 28    
Moisture  
Dew Point 26 °F    
Average Humidity 69    
Maximum Humidity 89    
Minimum Humidity 53    
Precipitation  
Precipitation 0.04 in - - ()
Sea Level Pressure  
Sea Level Pressure 30.28 in    
Wind  
Wind Speed 1 mph (North)    
Max Wind Speed 8 mph    
Max Gust Speed -    
Visibility 10 miles    
Events Rain    
Averages and records for this station are not official NWS values.
T = Trace of Precipitation, MM = Missing Value Source: NWS Daily Summary

Daily Weather History Graph

Daily Weather History Graph

Search for Another Location

Airport:

Trip Planner

Search our weather history database for the weather conditions in past years. The results will help you decide how hot, cold, wet, or windy it might be!

Date:

Astronomy

Jan. 15, 2013 Rise Set
Actual Time 7:13 AM EST 4:43 PM EST
Civil Twilight 6:42 AM EST 5:14 PM EST
Nautical Twilight 6:08 AM EST 5:48 PM EST
Astronomical Twilight 5:35 AM EST 6:21 PM EST
Moon 9:13 AM EST (1/15) 9:35 PM EST (1/15)
Length of Visible Light 10h 31m
Length of Day
9h 30m
Waxing Crescent, 19% of the Moon is Illuminated
Jan 15
Waxing Crescent
Jan 18
First Quarter
Jan 26
Full
Feb 3
Last Quarter
Feb 10
New

Hourly Weather History & Observations

Time (EST) Temp. Windchill Dew Point Humidity Pressure Visibility Wind Dir Wind Speed Gust Speed Precip Events Conditions
12:52 AM 36.0 °F - 30.0 °F 79% 30.26 in 10.0 mi Calm Calm - 0.02 in Rain Light Rain
1:52 AM 35.1 °F - 32.0 °F 89% 30.30 in 10.0 mi Calm Calm - 0.00 in Rain Light Rain
2:52 AM 35.1 °F - 30.9 °F 85% 30.25 in 10.0 mi Calm Calm - 0.02 in   Mostly Cloudy
6:52 AM 34.0 °F - 30.9 °F 89% 30.29 in 10.0 mi Calm Calm - N/A   Partly Cloudy
7:52 AM 33.1 °F 30.0 °F 28.0 °F 82% 30.31 in 10.0 mi North 3.5 mph - N/A   Clear
8:52 AM 34.0 °F - 28.0 °F 79% 30.33 in 10.0 mi Calm Calm - N/A   Clear
9:52 AM 37.0 °F - 26.1 °F 65% 30.33 in - Calm Calm - N/A   Scattered Clouds
10:52 AM 39.0 °F - 26.1 °F 60% 30.30 in 10.0 mi North - - N/A   Unknown
11:52 AM 39.9 °F 36.7 °F 25.0 °F 55% 30.30 in 10.0 mi NNE 4.6 mph - N/A   Clear
12:52 PM 42.1 °F - - N/A% 30.27 in 10.0 mi Calm Calm - N/A   Clear
1:52 PM 39.9 °F 34.5 °F 24.1 °F 53% 30.27 in 10.0 mi North 8.1 mph - N/A   Clear
2:52 PM 39.0 °F 34.8 °F 23.0 °F 53% 30.26 in 10.0 mi NNW 5.8 mph - N/A   Clear
3:52 PM 39.0 °F - 23.0 °F 53% 30.26 in 10.0 mi Calm Calm - N/A   Clear
4:52 PM 37.9 °F - 23.0 °F 55% 30.28 in 10.0 mi Calm Calm - N/A   Clear
5:52 PM 36.0 °F - 24.1 °F 62% 30.28 in 10.0 mi Calm Calm - N/A   Clear
6:52 PM 33.1 °F - 26.1 °F 75% 30.27 in 10.0 mi Calm Calm - N/A   Clear
7:52 PM 33.1 °F - 25.0 °F 72% 30.27 in 10.0 mi Calm Calm - N/A   Mostly Cloudy
8:52 PM 34.0 °F - 24.1 °F 67% 30.26 in 10.0 mi Calm Calm - N/A   Overcast
9:52 PM 34.0 °F - 24.1 °F 67% 30.26 in 10.0 mi Calm Calm - N/A   Overcast
10:52 PM 33.1 °F - 26.1 °F 75% 30.25 in 10.0 mi Calm Calm - N/A   Overcast
11:52 PM 33.1 °F - 26.1 °F 75% 30.24 in 10.0 mi Calm Calm - N/A   Overcast